Location: Cahas Mountain Overlook
(37.0833°N, 80.1000°W)
Time: 18:47:20
(UTC-04:00)

Explorer 7 - Pass Details

Date: 09 February 2026
Orbit: 430 x 541 km, 50.2° (Epoch: 13 March)

Event Time Altitude Azimuth Distance (km) Brightness Sun altitude
Rises 23:15:28 0° 314° (NW) 2,629 - -61.3°
Reaches altitude 10° 23:18:01 10° 330° (NNW) 1,761 - -61.6°
Maximum altitude 23:21:15 23° 24° (NNE) 1,166 - -62.0°
Drops below altitude 10° 23:24:33 10° 77° (ENE) 1,796 - -62.4°
Sets 23:27:09 0° 92° (E) 2,696 - -62.8°
